Location: Rancho Del Sol Observatory
(38.7214°N, 120.6350°W)
Time: 10:32:12
(UTC-07:00)

Cosmos 2221 Rocket - Visible Passes

Search period start: 25 July 2014 00:00
Search period end: 04 August 2014 00:00
Orbit: 621 x 651 km, 82.5° (Epoch: 24 July)

Date Brightness Start Highest point End Pass type
(mag) Time Alt. Az. Time Alt. Az. Time Alt. Az.
29 Jul 6.4 05:05:06 10° SE 05:08:07 18° E 05:11:08 10° NE visible
30 Jul 5.1 05:26:27 10° SSE 05:30:33 39° E 05:34:39 10° NNE visible
01 Aug 6.4 04:35:28 10° ESE 04:38:00 15° E 04:40:33 10° NE visible
02 Aug 5.4 04:56:29 10° SSE 05:00:24 32° E 05:04:20 10° NNE visible
03 Aug 3.8 05:18:34 10° S 05:22:56 74° E 05:27:21 10° N visible
